Tracking 25709 objects as of 23-May-2022
HD Live streaming from Space Station
objects crossing your sky now

FLOCK 4V 8

Track FLOCK 4V 8 now!
10-day predictions
FLOCK 4V 8 is classified as:


NORAD ID: 46288
Int'l Code: 2020-061S
Perigee: 529.8 km
Apogee: 533.8 km
Inclination: 97.4 °
Period: 95.1 minutes
Semi major axis: 6902 km
RCS: Unknown
Launch date: September 3, 2020
Source: United States (US)
Launch site: FRENCH GUIANA (FRGUI)
aabbcc
Your satellite tracking list
Your tracking list is empty




NASA's NSSDC Master Catalog

Two Line Element Set (TLE):
1 46288U 20061S   22143.44265922  .00014093  00000-0  78341-3 0  9996
2 46288  97.4479 214.1969 0002879  33.8114 326.3300 15.13793574 94621
Source of the keplerian elements: AFSPC